Flag for Germany

Past Weather in Bonn, North Rhine-Westphalia, Germany — Yesterday and Last 2 Weeks

Now
68 °F

Passing clouds.


Feels Like: 68 °F
Forecast: 77 / 46 °F
Wind: 5 mph from South

Location: Koeln / Bonn
Current Time: Sep 20, 2020 at 11:59:56 am
Latest Report: Sep 20, 2020 at 11:20 am
Visibility: N/A
Pressure30.04 "Hg
Humidity: 46%
Dew Point: 46 °F
Location of BonnLocation

Past Weather in Bonn — Graph

°F

Bonn Temperature Yesterday

Maximum temperature yesterday: 79 °F (at 3:20 pm)
Minimum temperature yesterday: 50 °F (at 2:50 am)
Average temperature yesterday: 64 °F

High & Low Weather Summary for the Past Weeks

 TemperatureHumidityPressure
High91 °F (Sep 15, 3:20 pm)100% (Sep 6, 2:50 am)30.33 "Hg (Sep 6, 2:50 am)
Low43 °F (Sep 6, 5:50 am)23% (Sep 15, 4:20 pm)30.01 "Hg (Sep 11, 4:50 pm)
Average63 °F67%30.17 "Hg
* Reported Sep 5 10:20 am — Sep 20 10:50 am, Bonn. Weather by CustomWeather, © 2020

Note: Actual official high and low records may vary slightly from our data, if they occured in-between our weather recording intervals... More about our weather records

Bonn Weather History for the Previous 24 Hours

Scroll right to see more
 ConditionsComfort  
Time TempWeatherWind HumidityBarometerVisibility
10:50 am
Sun, Sep 20
66 °FPassing clouds.3 mph49%30.04 "HgN/A
10:20 am64 °FPassing clouds.3 mph49%30.04 "HgN/A
9:50 am61 °FPassing clouds.3 mph55%30.04 "HgN/A
9:20 am57 °FPassing clouds.3 mph59%30.04 "HgN/A
7:50 am45 °FSunny.1 mph87%30.04 "Hg10 mi
7:20 am46 °FSunny.2 mph76%30.01 "Hg10 mi
6:50 am46 °FClear.1 mph82%30.01 "Hg10 mi
6:20 am50 °FClear.5 mph71%30.04 "Hg10 mi
5:50 am50 °FClear.6 mph71%30.04 "Hg10 mi
5:20 am48 °FClear.6 mph76%30.04 "Hg10 mi
4:50 am48 °FClear.6 mph71%30.01 "Hg10 mi
4:20 am48 °FClear.2 mph71%30.01 "Hg10 mi
3:50 am52 °FPassing clouds.3 mph62%30.01 "HgN/A
3:20 am46 °FClear.3 mph76%30.01 "Hg10 mi
2:50 am54 °FPassing clouds.3 mph58%30.01 "HgN/A
2:20 am54 °FClear.2 mph58%30.01 "Hg10 mi
1:50 am52 °FClear.1 mph67%30.01 "Hg10 mi
1:20 am50 °FClear.2 mph71%30.04 "Hg10 mi
12:50 am52 °FClear.2 mph72%30.04 "Hg10 mi
12:20 am57 °FClear.2 mph55%30.04 "Hg10 mi
11:50 pm
Sat, Sep 19
57 °FPassing clouds.3 mph59%30.04 "HgN/A
11:20 pm55 °FClear.7 mph63%30.04 "Hg10 mi
10:50 pm61 °FClear.2 mph52%30.01 "Hg10 mi
10:20 pm61 °FClear.5 mph52%30.01 "Hg10 mi
9:50 pm61 °FPassing clouds.3 mph55%30.01 "HgN/A
9:20 pm66 °FPassing clouds.3 mph43%30.01 "HgN/A
8:50 pm68 °FClear.6 mph40%30.01 "Hg10 mi
8:20 pm68 °FClear.6 mph40%30.01 "Hg10 mi
7:50 pm70 °FClear.5 mph40%30.01 "Hg10 mi
7:20 pm72 °FSunny.3 mph41%30.01 "Hg10 mi
6:50 pm77 °FPassing clouds.3 mph32%30.01 "HgN/A
6:20 pm79 °FPassing clouds.3 mph28%30.01 "HgN/A
5:50 pm79 °FPassing clouds.6 mph28%30.01 "HgN/A
5:20 pm79 °FPassing clouds.7 mph28%30.01 "HgN/A
4:50 pm79 °FPassing clouds.7 mph28%30.01 "HgN/A
4:20 pm79 °FPassing clouds.6 mph28%30.01 "HgN/A
3:50 pm79 °FPassing clouds.7 mph28%30.01 "HgN/A
3:20 pm79 °FPassing clouds.8 mph28%30.04 "HgN/A
2:50 pm77 °FPassing clouds.8 mph30%30.04 "HgN/A
1:50 pm75 °FPassing clouds.12 mph31%30.07 "HgN/A
1:20 pm75 °FPassing clouds.10 mph34%30.07 "HgN/A
12:50 pm73 °FSunny.13 mph33%30.07 "Hg10 mi
12:20 pm72 °FSunny.12 mph36%30.09 "Hg10 mi
11:50 am70 °FSunny.10 mph38%30.09 "Hg10 mi
11:20 am68 °FSunny.13 mph40%30.09 "Hg10 mi
Weather by CustomWeather, © 2020

See weather overview